Content
SEND FEEDBACK

Daily
Averages
Monthly
Summary
Canada

VANCOUVER, BRITISH COLUMBIA


Home > North America > Canada > British Columbia
Elevation: 2 meters     Latitude: 49 11N     Longitude: 123 10W

WEATHER
 
SELECT A DAY
Number of Records: 249,704;   Date Range: 5/15/97 - 8/31/14
 
SHARE

PRINT THIS DATA

[ ← Previous Day ]
WEATHER ALMANAC - 21 JANUARY, 2013
[ Next Day → ]
[ °F ]   °C
Weather ElementAverageHighLow
Temperature2.8 °C4 °C (9:15 am)2 °C (5:55 am)
Dewpoint1.9 °C3 °C (12:35 am)0 °C (9:55 am)
Humidity94 %100 % (12:35 am)75 % (11:35 am)
Barometer1022.7 hPa1025.1 hPa (12:35 am)1020.3 hPa (6:15 pm)
Wind Speed6.3 km/h14.8 km/h (1:55 am)
Weather ElementAverage
Visibility14.2 km
Wind DirectionSSW (209.1 °)

Weather ElementTotal
Precipitation---
Heating Degree Days15.3 (Base 18.3)
Averaged from 66 records on 21 January, 2013
WEATHER CONDITIONS BREAKOUT
WIND DIRECTION BREAKOUT
WEATHER BY HOUR - 21 JANUARY, 2013
[ °F ]   °C
Local TimeTemperatureDewpointHumidityBarometerVisibilityWind DirectionWind SpeedGust SpeedPrecipitationEventsConditions
12:35 AM3 °C3 °C100 %1025.1 hPa16.1 kmNorth (360°)11.1 km/hOvercast
12:55 AM3 °C3 °C100 %1025.1 hPa16.1 kmNorth (360°)13 km/hOvercast
1:15 AM3 °C3 °C100 %1025.1 hPa16.1 kmNorth (360°)11.1 km/hOvercast
1:35 AM3 °C3 °C100 %1025.1 hPa16.1 kmNorth (360°)11.1 km/hOvercast
1:55 AM3 °C3 °C100 %1025.1 hPa16.1 kmNorth (350°)14.8 km/hOvercast
2:15 AM3 °C3 °C100 %1025.1 hPa11.3 kmNNW (340°)11.1 km/hOvercast
2:35 AM3 °C3 °C100 %1025.1 hPa16.1 kmNorth (350°)11.1 km/hOvercast
2:55 AM3 °C3 °C100 %1024.7 hPa16.1 kmNorth (350°)11.1 km/hOvercast
3:15 AM3 °C3 °C100 %1024.7 hPa16.1 kmNorth (350°)13 km/hOvercast
3:35 AM3 °C3 °C100 %1024.7 hPa16.1 kmNorth (350°)9.3 km/hOvercast
3:55 AM3 °C2 °C93 %1024.4 hPa16.1 kmNorth (350°)11.1 km/hOvercast
4:15 AM3 °C3 °C100 %1024.4 hPa16.1 kmNorth (350°)11.1 km/hOvercast
4:35 AM3 °C2 °C93 %1024 hPa16.1 kmNorth (350°)11.1 km/hMostly Cloudy
5:15 AM3 °C2 °C93 %1023.7 hPa16.1 kmNorth (360°)11.1 km/hMostly Cloudy
5:35 AM3 °C2 °C93 %1023.7 hPa16.1 kmNorth (350°)11.1 km/hMostly Cloudy
5:55 AM2 °C2 °C100 %1023.7 hPa16.1 kmNorth (350°)9.3 km/hScattered Clouds
6:15 AM2 °C2 °C100 %1023.4 hPa16.1 kmNorth (360°)9.3 km/hScattered Clouds
6:35 AM2 °C2 °C100 %1023 hPa16.1 kmNorth (350°)9.3 km/hMostly Cloudy
6:55 AM2 °C2 °C100 %1023 hPa16.1 kmNorth (350°)5.6 km/hMostly Cloudy
7:15 AM2 °C2 °C100 %1022.7 hPa16.1 kmNorth (360°)9.3 km/hMostly Cloudy
7:35 AM2 °C2 °C100 %1023 hPa16.1 kmNorth (360°)7.4 km/hMostly Cloudy
7:55 AM3 °C2 °C93 %1023 hPa16.1 kmNorth (360°)9.3 km/hOvercast
8:15 AM3 °C2 °C93 %1022.7 hPa16.1 kmNorth (360°)7.4 km/hOvercast
8:35 AM3 °C2 °C93 %1023 hPa16.1 kmNNW (340°)9.3 km/hOvercast
8:55 AM3 °C2 °C93 %1023 hPa16.1 kmCalmOvercast
9:15 AM4 °C2 °C87 %1023.4 hPa16.1 kmNorth (360°)7.4 km/hOvercast
9:35 AM3 °C2 °C93 %1023.4 hPa16.1 kmNNE (20°)7.4 km/hMostly Cloudy
9:55 AM3 °C0 °C81 %1023.4 hPa16.1 kmCalmClear
10:15 AM3 °C0 °C81 %1023.7 hPa16.1 kmNNE (30°)5.6 km/hClear
10:35 AM3 °C0 °C81 %1023.7 hPa16.1 kmNNE (30°)7.4 km/hClear
10:55 AM3 °C0 °C81 %1023.7 hPa16.1 kmNNE (20°)9.3 km/hClear
11:15 AM3 °C0 °C81 %1023.7 hPa16.1 kmNNE (20°)7.4 km/hClear
11:35 AM4 °C0 °C75 %1023.7 hPa16.1 kmNorth (360°)7.4 km/hClear
11:55 AM4 °C0 °C75 %1023.4 hPa16.1 kmNorth (360°)9.3 km/hClear
12:15 PM4 °C0 °C75 %1023 hPa16.1 kmNorth (360°)9.3 km/hClear
12:35 PM4 °C2 °C87 %1022.7 hPa16.1 kmNorth (360°)9.3 km/hClear
12:55 PM4 °C2 °C87 %1022.4 hPa16.1 kmNorth (360°)9.3 km/hClear
1:15 PM4 °C2 °C87 %1022.4 hPa16.1 kmNorth (350°)11.1 km/hClear
1:35 PM4 °C2 °C87 %1022 hPa16.1 kmNorth (350°)9.3 km/hClear
1:55 PM4 °C2 °C87 %1022 hPa16.1 kmNNW (340°)7.4 km/hClear
2:15 PM4 °C2 °C87 %1022 hPa16.1 kmNNW (330°)9.3 km/hPartly Cloudy
2:35 PM4 °C2 °C87 %1021.7 hPa16.1 kmNNW (330°)7.4 km/hPartly Cloudy
2:55 PM3 °C2 °C93 %1021 hPa16.1 kmNNW (340°)9.3 km/hPartly Cloudy
3:15 PM3 °C2 °C93 %1021 hPa16.1 kmNorth (350°)7.4 km/hPartly Cloudy
3:35 PM3 °C2 °C93 %1021 hPa16.1 kmNNW (330°)7.4 km/hScattered Clouds
3:55 PM3 °C2 °C93 %1021 hPa16.1 kmNW (320°)5.6 km/hMostly Cloudy
4:15 PM3 °C2 °C93 %1021 hPa16.1 kmCalmMostly Cloudy
4:35 PM3 °C2 °C93 %1021 hPa16.1 kmCalmOvercast
4:55 PM2 °C2 °C100 %1021 hPa16.1 kmCalmOvercast
5:15 PM2 °C2 °C100 %1021 hPa16.1 kmCalmOvercast
5:35 PM2 °C2 °C100 %1020.7 hPa12.9 kmNorthOvercast
6:15 PM2 °C2 °C100 %1020.3 hPa12.9 kmCalmOvercast
6:35 PM2 °C2 °C100 %1020.3 hPa11.3 kmCalmOvercast
6:55 PM2 °C2 °C100 %1020.3 hPa11.3 kmCalmOvercast
7:15 PM2 °C2 °C100 %1020.3 hPa9.7 kmCalmOvercast
7:35 PM2 °C2 °C100 %1020.3 hPa8 kmCalmOvercast
7:55 PM2 °C2 °C100 %1020.7 hPa8 kmCalmOvercast
8:15 PM2 °C2 °C100 %1020.7 hPa6.4 kmCalmOvercast
8:35 PM2 °C2 °C100 %1021 hPa4.8 kmCalmOvercast
9:15 PM2 °C2 °C100 %1020.7 hPa6.4 kmCalmOvercast
9:35 PM2 °C2 °C100 %1020.7 hPa4.8 kmCalmOvercast
10:15 PM2 °C2 °C100 %1020.7 hPa6.4 kmCalmOvercast
10:55 PM2 °C1 °C93 %1020.3 hPa8 kmCalmOvercast
11:15 PM2 °C1 °C93 %1020.7 hPa6.4 kmCalmOvercast
11:35 PM2 °C2 °C100 %1021 hPa6.4 kmCalmOvercast
11:55 PM2 °C2 °C100 %1020.7 hPa8 kmCalmOvercast
Hourly data recorded from CZBB, located 0 kilometers away from Vancouver, British Columbia







STORIES FROM OUR PARTNERS